Location: ??????
(56.0120°N, 39.1740°E)
Time: 21:17:40
(UTC+00:00)

Cosmos 2369 Rocket - Pass Details

Date: 14 April 2026
Orbit: 829 x 850 km, 71.0° (Epoch: 13 May)

Event Time Altitude Azimuth Distance (km) Brightness Sun altitude
Rises 20:26:32 0° 322° (NW) 3,387 6.5 -23.3°
Reaches altitude 10° 20:29:12 10° 313° (NW) 2,447 5.4 -23.4°
Maximum altitude 20:34:04 31° 253° (WSW) 1,416 3.3 -23.5°
Enters shadow 20:35:05 29° 232° (SW) 1,477 3.2 -23.6°
